[[{"header":{"parameterUnit":"m.s-1","parameterCategory":2,"la1":30.2991,"la2":30.254,"lo1":-89.0895,"lo2":-89.0444,"dy":0.0017,"dx":0.0017,"nx":28,"ny":28,"refTime":"2024-05-27T03:00:00:Z","depth":"0","parameterNumber":2,"parameterNumberName":"U-component_of_CURRENTS"},"data":[0,0,0,0,0,0,0,0,0,0,0,0,0,0,0,0,0,0,0,0,0,0,0,0,0,0,0,0,0,0,0,0,0,0,0,0,0,0,0,0,0,0,0,0,0,0,0,0,0,0,0,0,0,0,0,0,0,0,0.3226,0.3226,0,0.3243,0.3243,0.3243,0.3222,0.3221,0.3221,0.322,0.3212,0.3213,0.3213,0,0,0,0,0,0,0,0,0,0,0,0,0,0.3199,0.3199,0.3226,0.3226,0.3227,0.3243,0.3243,0.3243,0.3222,0.3221,0.3221,0.322,0.3212,0.3213,0.3213,0,0,0,0,0,0,0,0,0,0,0,0,0,0.321,0.3199,0.3226,0.322,0.322,0.3243,0.3243,0.3243,0.3222,0.3221,0.3221,0.322,0.3212,0.3213,0.3213,0.3233,0,0,0.3215,0.3215,0,0,0,0,0,0,0,0,0.321,0.3211,0.322,0.3221,0.322,0.3231,0.323,0.3239,0.3223,0.3219,0.322,0.3219,0.3219,0.3219,0.3221,0.3232,0.3232,0.3215,0.3215,0.3215,0.3215,0,0,0,0,0,0,0,0.3209,0.321,0.323,0.3221,0.3221,0.3225,0.3225,0.3232,0.3221,0.3219,0.3218,0.3224,0.3218,0.322,0.322,0.3232,0.3215,0.3215,0.3215,0.3215,0.3305,0.3307,0,0,0,0,0,0,0.3211,0.321,0.323,0.3231,0.3215,0.3226,0.3226,0.3227,0.3221,0.3221,0.3225,0.3223,0.322,0.322,0.322,0.3282,0.3215,0.3215,0.3216,0.3303,0.3305,0.3307,0,0,0,0,0,0,0.321,0.3213,0.3229,0.3223,0.3225,0.3227,0.3228,0.3228,0.3234,0.3226,0.3224,0.3232,0.3219,0.3219,0.3242,0.328,0.3216,0.3216,0.33,0.3303,0.3306,0.338,0,0,0,0,0,0,0.3209,0.3212,0.3216,0.3223,0.3226,0.3247,0.3229,0.3229,0.3239,0.3237,0.3232,0.323,0.3219,0.3241,0.3242,0.3279,0.3216,0.3297,0.3301,0.3305,0.3375,0.3385,0.3394,0,0,0,0,0,0.3208,0.3217,0.3216,0.3219,0.323,0.3248,0.325,0.3247,0.3241,0.3248,0.3253,0.323,0.3267,0.3243,0.3244,0.3282,0.3295,0.33,0.3305,0.3371,0.3383,0.3394,0,0,0,0,0,0,0.3204,0.3217,0.3215,0.3226,0.3239,0.3246,0.3255,0.3255,0.3265,0.3264,0.3252,0.3252,0.3287,0.3277,0.3252,0.3321,0.328,0.3285,0.333,0.3342,0.3351,0.3352,0.3217,0,0,0,0,0,0.3207,0.3218,0.3229,0.3239,0.3247,0.3253,0.3261,0.3262,0.3272,0.3274,0.3272,0.3281,0.3309,0.3317,0.3328,0.3363,0.3371,0.3391,0.34,0.3408,0.3412,0.3485,0.3502,0.3323,0.3323,0.3323,0,0,0.3207,0.3217,0.3221,0.324,0.3248,0.327,0.3255,0.3273,0.3298,0.3274,0.3301,0.3311,0.3325,0.3367,0.3383,0.3362,0.3461,0.3414,0.3421,0.342,0.3492,0.3509,0.3525,0.3326,0.3325,0.3325,0,0,0.3216,0.3223,0.3236,0.3253,0.3275,0.3285,0.3294,0.3307,0.3317,0.3354,0.335,0.3386,0.3409,0.3433,0.3451,0.3522,0.3509,0.3525,0.3576,0.3647,0.3663,0.3676,0.3694,0.3708,0.3531,0.3532,0.3532,0,0.3215,0.3232,0.3243,0.3266,0.3285,0.3296,0.3319,0.3342,0.3361,0.3388,0.3372,0.3446,0.3448,0.3525,0.3546,0.3545,0.3564,0.3529,0.366,0.3674,0.3687,0.3701,0.3716,0.3536,0.3535,0.3535,0.3534,0,0.3237,0.3254,0.3267,0.33,0.3324,0.3346,0.338,0.3409,0.3429,0.3456,0.3527,0.3542,0.3589,0.3602,0.3595,0.369,0.3665,0.3663,0.3629,0.3709,0.3719,0.3733,0.3542,0.354,0.3539,0.3538,0,0,0.3213,0.3269,0.327,0.329,0.3342,0.3359,0.3424,0.3482,0.3533,0.3568,0.3643,0.3692,0.3701,0.3722,0.3724,0.3779,0.3873,0.3758,0.376,0.3771,0.4002,0.3951,0.3961,0.3902,0.3905,0.3908,0.3967,0,0.3221,0.3262,0.3295,0.3338,0.3361,0.341,0.3471,0.3533,0.3588,0.3664,0.3718,0.3781,0.3749,0.3779,0.3835,0.3874,0.3918,0.3855,0.3926,0.3927,0.387,0.3979,0.3896,0.394,0.3981,0.3983,0.3985,0,0.3219,0.3252,0.3292,0.3361,0.3377,0.3412,0.351,0.3563,0.3687,0.3742,0.3826,0.3865,0.3957,0.3916,0.4026,0.399,0.3997,0.4015,0.4018,0.3955,0.3905,0.3871,0.3964,0.3913,0.4006,0.4005,0.4003,0,0.318,0.3242,0.3272,0.3294,0.3382,0.3419,0.3469,0.3584,0.3652,0.3789,0.3867,0.397,0.4037,0.4088,0.4119,0.4087,0.423,0.4193,0.4145,0.4139,0.4073,0.4056,0.4122,0.4266,0.4266,0.4266,0.4266,0,0.3169,0.3183,0.3253,0.3269,0.3318,0.339,0.3469,0.3546,0.3686,0.3781,0.3891,0.3986,0.409,0.4177,0.4176,0.4216,0.4281,0.4175,0.4174,0.4093,0.4078,0.4031,0.3994,0.4268,0.4268,0.4267,0.4267,0,0.3108,0.3156,0.3185,0.3271,0.3296,0.3325,0.3449,0.3515,0.3659,0.3793,0.3845,0.4033,0.415,0.4224,0.4321,0.429,0.4228,0.431,0.4181,0.4163,0.4044,0.4013,0.3851,0.3763,0.4271,0.427,0.427,0,0.3079,0.3092,0.316,0.3178,0.3209,0.3275,0.333,0.3477,0.3559,0.3804,0.3865,0.4047,0.4155,0.4291,0.4295,0.4315,0.4202,0.4222,0.4147,0.4051,0.4018,0.3806,0.3729,0.4078,0.4076,0.4074,0.4073,0,0.3024,0.3043,0.3069,0.311,0.315,0.32,0.329,0.3359,0.3546,0.3666,0.3825,0.3939,0.4125,0.4152,0.4219,0.4206,0.4061,0.4186,0.4151,0.3933,0.3645,0.3555,0.3987,0.4058,0.406,0.4061,0.4062,0.4062,0.2968,0.2966,0.3004,0.3026,0.3065,0.3098,0.3108,0.3224,0.3324,0.348,0.3677,0.3804,0.4011,0.4104,0.4069,0.4016,0.3925,0.3933,0.392,0.3723,0.3591,0.3963,0.3995,0.3996,0.3997,0.3998,0.3998,0,0.2896,0.2901,0.2923,0.2933,0.2921,0.2984,0.3054,0.3048,0.3091,0.3297,0.3415,0.3649,0.3733,0.3862,0.3922,0.3811,0.36,0.3719,0.3445,0.3398,0.3819,0.377,0.3678,0.3678,0.3678,0.3678,0.3678,0.3678,0.2858,0.2837,0.2841,0.278,0.2784,0.2731,0.2737,0.2745,0.2846,0.2964,0.3107,0.3278,0.3609,0.3785,0.3758,0.3673,0.3436,0.3248,0.3223,0.36,0.3619,0.3637,0.3585,0.3457,0.3456,0.268,0.2674,0.267]},{"header":{"parameterUnit":"m.s-1","parameterCategory":2,"la1":30.2991,"la2":30.254,"lo1":-89.0895,"lo2":-89.0444,"dy":0.0017,"dx":0.0017,"nx":28,"ny":28,"refTime":"2024-05-27T03:00:00:Z","depth":"0","parameterNumber":3,"parameterNumberName":"V-component_of_CURRENTS"},"data":[0,0,0,0,0,0,0,0,0,0,0,0,0,0,0,0,0,0,0,0,0,0,0,0,0,0,0,0,0,0,0,0,0,0,0,0,0,0,0,0,0,0,0,0,0,0,0,0,0,0,0,0,0,0,0,0,0,0,0.0309,0.0309,0,0.0262,0.0261,0.026,0.0224,0.0224,0.0224,0.0224,0.0149,0.0148,0.0146,0,0,0,0,0,0,0,0,0,0,0,0,0,0.0319,0.0319,0.0309,0.0309,0.0308,0.0262,0.0261,0.026,0.0224,0.0224,0.0224,0.0224,0.015,0.0148,0.0146,0,0,0,0,0,0,0,0,0,0,0,0,0,0.0296,0.032,0.0309,0.0286,0.0284,0.0262,0.0261,0.026,0.0224,0.0224,0.0224,0.0223,0.0151,0.0148,0.0145,0.0134,0,0,0.0137,0.0136,0,0,0,0,0,0,0,0,0.0298,0.0296,0.029,0.0288,0.0285,0.025,0.0237,0.0217,0.0224,0.0245,0.0224,0.0223,0.0182,0.0177,0.0166,0.0131,0.0127,0.0137,0.0135,0.0134,0.0133,0,0,0,0,0,0,0,0.0299,0.0297,0.0289,0.029,0.0286,0.0261,0.0258,0.0233,0.0214,0.0243,0.0241,0.0238,0.018,0.0169,0.0164,0.0126,0.0137,0.0134,0.0133,0.0132,0.0086,0.0086,0,0,0,0,0,0,0.0312,0.0299,0.029,0.0287,0.0293,0.0261,0.0258,0.026,0.0214,0.0208,0.0239,0.0237,0.0174,0.0167,0.0161,0.0169,0.0134,0.0131,0.013,0.0085,0.0086,0.0086,0,0,0,0,0,0,0.0312,0.0311,0.0292,0.0293,0.0289,0.0262,0.0265,0.0259,0.0252,0.0212,0.0204,0.0238,0.0173,0.0165,0.0149,0.0165,0.013,0.0128,0.0085,0.0085,0.0086,0.0169,0,0,0,0,0,0,0.0313,0.0312,0.0317,0.0294,0.029,0.0289,0.0265,0.0259,0.0252,0.0249,0.0209,0.0201,0.0172,0.0153,0.0146,0.0161,0.0126,0.0084,0.0085,0.0086,0.0166,0.0172,0.0178,0,0,0,0,0,0.0313,0.0326,0.0318,0.0317,0.0298,0.029,0.0286,0.0263,0.0252,0.0255,0.0228,0.0203,0.0153,0.0151,0.0143,0.0157,0.0084,0.0085,0.0086,0.0163,0.0171,0.0178,0,0,0,0,0,0,0.0332,0.0323,0.0314,0.0323,0.0311,0.0285,0.0285,0.027,0.0251,0.0247,0.0208,0.0199,0.0189,0.016,0.016,0.0145,0.0114,0.0113,0.0175,0.0182,0.0188,0.0213,0.0123,0,0,0,0,0,0.034,0.0348,0.0332,0.0338,0.0335,0.0311,0.0304,0.0291,0.0271,0.0262,0.0235,0.0206,0.0185,0.0175,0.0148,0.0142,0.011,0.0144,0.015,0.0156,0.0169,0.0145,0.015,0.0089,0.0089,0.0089,0,0,0.0347,0.0344,0.0348,0.0343,0.033,0.034,0.0306,0.0303,0.0315,0.0257,0.0262,0.0225,0.0187,0.0181,0.0174,0.0161,0.0151,0.0157,0.0162,0.0173,0.0146,0.0152,0.0158,0.009,0.009,0.009,0,0,0.0375,0.0366,0.0384,0.038,0.0371,0.036,0.0364,0.0343,0.0339,0.0336,0.0298,0.0276,0.0244,0.0223,0.0208,0.0231,0.0183,0.0218,0.0274,0.025,0.0255,0.0259,0.0209,0.0208,0.0225,0.0225,0.0225,0,0.0385,0.0408,0.0387,0.0404,0.0411,0.0376,0.0401,0.0392,0.037,0.0376,0.0349,0.0308,0.0268,0.027,0.0273,0.0247,0.0216,0.0252,0.026,0.0263,0.0266,0.0213,0.0211,0.0229,0.0229,0.0228,0.0228,0,0.0426,0.0444,0.0455,0.047,0.0473,0.0485,0.0476,0.0481,0.0468,0.0456,0.0451,0.0395,0.0373,0.0353,0.0319,0.0324,0.0287,0.0269,0.0246,0.0278,0.0219,0.0215,0.0235,0.0234,0.0232,0.0231,0,0,0.0456,0.0481,0.0486,0.0514,0.0511,0.0526,0.0548,0.0566,0.0598,0.0557,0.059,0.0532,0.0493,0.0473,0.0422,0.0399,0.0375,0.0349,0.0345,0.0308,0.0304,0.0298,0.0293,0.0362,0.0363,0.0363,0.0249,0,0.0498,0.0554,0.0552,0.061,0.064,0.0627,0.0661,0.0669,0.0665,0.0685,0.0628,0.063,0.0542,0.0537,0.0495,0.0419,0.0373,0.0406,0.0272,0.0267,0.0266,0.0292,0.0334,0.0239,0.0245,0.0244,0.0244,0,0.0544,0.058,0.0643,0.0702,0.0716,0.0744,0.08,0.0828,0.0837,0.0834,0.0809,0.0761,0.0716,0.0642,0.0511,0.0538,0.0424,0.0351,0.0345,0.0313,0.0256,0.021,0.0231,0.0102,0.0238,0.0238,0.0239,0,0.0592,0.0649,0.0709,0.0723,0.0777,0.0813,0.0847,0.0874,0.0927,0.0933,0.0965,0.0881,0.0864,0.0725,0.0553,0.0536,0.0408,0.0363,0.024,0.0236,0.0233,0.023,0.0127,0.0262,0.0262,0.0263,0.0263,0,0.0643,0.0695,0.074,0.0775,0.0868,0.0879,0.0978,0.0999,0.1052,0.1137,0.1046,0.1085,0.0889,0.0789,0.0603,0.042,0.0436,0.0257,0.0219,0.026,0.0261,0.0117,0.001,0.0258,0.0259,0.026,0.0261,0,0.0688,0.0713,0.0793,0.0862,0.0894,0.0963,0.1077,0.1154,0.1184,0.1294,0.1307,0.1246,0.1123,0.0904,0.0685,0.0506,0.0233,0.0239,0.0288,0.0259,0.0035,-0.0069,-0.0236,-0.0321,0.0092,0.0091,0.0091,0,0.0716,0.0759,0.0859,0.0921,0.0957,0.1062,0.1149,0.1216,0.1311,0.1403,0.147,0.1387,0.1361,0.1023,0.07,0.0382,0.021,0.0196,0.0173,0.004,-0.0105,-0.0167,-0.023,0.018,0.018,0.018,0.018,0,0.0771,0.0802,0.087,0.1,0.1098,0.1225,0.1353,0.1452,0.1556,0.1656,0.176,0.175,0.144,0.1169,0.0731,0.0489,0.0114,0.0191,0.005,-0.0041,-0.0112,-0.0215,0.0209,0.0182,0.0182,0.0182,0.0182,0.0182,0.0811,0.0868,0.0961,0.1088,0.1209,0.1378,0.1507,0.1657,0.1839,0.2022,0.1983,0.2043,0.164,0.1065,0.0699,0.0141,0.0099,-0.0008,-0.0127,-0.0179,-0.0238,0.0183,0.0123,0.0123,0.0122,0.0122,0.0122,0,0.086,0.0932,0.1048,0.1207,0.1352,0.1414,0.1641,0.1792,0.2025,0.2209,0.2309,0.2228,0.1678,0.1122,0.0346,-0.0071,-0.0237,-0.0295,-0.0371,-0.0427,-0.0044,-0.0013,-0.0098,-0.0098,-0.0098,-0.0098,-0.0098,-0.0098,0.0888,0.1,0.1063,0.1299,0.1421,0.1648,0.1791,0.2021,0.2217,0.2504,0.2636,0.269,0.2356,0.0862,-0.0089,-0.0349,-0.0641,-0.07,-0.0865,-0.0592,-0.0573,-0.0556,-0.0548,-0.0743,-0.0744,-0.1157,-0.1162,-0.1165]}],[{"header":{"parameterUnit":"m.s-1","parameterCategory":2,"la1":30.2991,"la2":30.254,"lo1":-89.0895,"lo2":-89.0444,"dy":0.0017,"dx":0.0017,"nx":28,"ny":28,"refTime":"2024-05-27T03:00:00:Z","depth":"2","parameterNumber":2,"parameterNumberName":"U-component_of_CURRENTS"},"data":[0,0,0,0,0,0,0,0,0,0,0,0,0,0,0,0,0,0,0,0,0,0,0,0,0,0,0,0,0,0,0,0,0,0,0,0,0,0,0,0,0,0,0,0,0,0,0,0,0,0,0,0,0,0,0,0,0,0,0.3083,0.3084,0,0.3099,0.3099,0.3099,0.3086,0.3086,0.3085,0.3085,0.3083,0.3083,0.3083,0,0,0,0,0,0,0,0,0,0,0,0,0,0.3059,0.3059,0.3083,0.3084,0.3084,0.3099,0.3099,0.3099,0.3086,0.3086,0.3085,0.3085,0.3083,0.3083,0.3083,0,0,0,0,0,0,0,0,0,0,0,0,0,0.3069,0.3059,0.3083,0.3081,0.3081,0.3099,0.3099,0.3099,0.3086,0.3086,0.3085,0.3085,0.3083,0.3083,0.3083,0.3096,0,0,0.3085,0.3085,0,0,0,0,0,0,0,0,0.3069,0.307,0.3081,0.3081,0.3081,0.3092,0.309,0.3098,0.3086,0.3082,0.3085,0.3084,0.3086,0.3086,0.3087,0.3096,0.3096,0.3085,0.3085,0.3085,0.3085,0,0,0,0,0,0,0,0.3068,0.3069,0.3087,0.3081,0.3082,0.3086,0.3086,0.3092,0.3084,0.3082,0.3082,0.3087,0.3086,0.3087,0.3087,0.3096,0.3085,0.3085,0.3085,0.3085,0.317,0.3172,0,0,0,0,0,0,0.307,0.3069,0.3087,0.3088,0.3076,0.3086,0.3087,0.3087,0.3085,0.3085,0.3088,0.3087,0.3087,0.3087,0.3087,0.3149,0.3085,0.3085,0.3086,0.3168,0.317,0.3173,0,0,0,0,0,0,0.307,0.3072,0.3086,0.3081,0.3083,0.3088,0.3088,0.3088,0.3097,0.309,0.3089,0.3098,0.3086,0.3086,0.3109,0.3147,0.3086,0.3086,0.3166,0.3169,0.3171,0.3244,0,0,0,0,0,0,0.3069,0.3071,0.3076,0.3081,0.3084,0.3103,0.3089,0.3089,0.3102,0.3101,0.3098,0.3097,0.3086,0.3109,0.311,0.3147,0.3086,0.3163,0.3167,0.3171,0.3239,0.3249,0.3258,0,0,0,0,0,0.3068,0.3076,0.3076,0.3079,0.3089,0.3104,0.3106,0.3106,0.3103,0.3111,0.3117,0.3098,0.3134,0.3111,0.3111,0.3149,0.3161,0.3166,0.317,0.3235,0.3247,0.3257,0,0,0,0,0,0,0.3066,0.3076,0.3076,0.3086,0.3098,0.3103,0.3113,0.3115,0.3126,0.3128,0.3118,0.3118,0.3153,0.3144,0.3119,0.3187,0.3147,0.3152,0.3196,0.3207,0.3216,0.3219,0.3087,0,0,0,0,0,0.307,0.3079,0.3089,0.3099,0.3106,0.3112,0.312,0.3123,0.3133,0.3137,0.3136,0.3147,0.3173,0.3182,0.3192,0.3226,0.3232,0.3254,0.3263,0.3271,0.3275,0.3343,0.3359,0.3187,0.3187,0.3187,0,0,0.307,0.308,0.3084,0.31,0.3107,0.3127,0.3115,0.3134,0.3157,0.3136,0.3166,0.3176,0.3189,0.3229,0.3245,0.3225,0.3321,0.3276,0.3283,0.3283,0.335,0.3366,0.3381,0.319,0.319,0.3189,0,0,0.308,0.3087,0.3099,0.3114,0.3135,0.3145,0.3154,0.3167,0.318,0.3215,0.3213,0.3249,0.3272,0.3294,0.331,0.3378,0.3367,0.3383,0.3433,0.35,0.3515,0.3528,0.3544,0.3558,0.339,0.339,0.339,0,0.3081,0.3095,0.3105,0.3126,0.3143,0.3156,0.3177,0.3199,0.322,0.3247,0.3235,0.3307,0.331,0.338,0.3403,0.34,0.3419,0.3388,0.3513,0.3526,0.3538,0.3552,0.3566,0.3394,0.3393,0.3393,0.3393,0,0.3099,0.3116,0.3127,0.3157,0.318,0.3201,0.3233,0.3263,0.3286,0.3313,0.3383,0.3398,0.3444,0.3457,0.345,0.3541,0.3519,0.3516,0.3483,0.356,0.3569,0.3583,0.34,0.3398,0.3397,0.3396,0,0,0.308,0.3129,0.313,0.3148,0.3198,0.3212,0.3274,0.333,0.3379,0.3417,0.3489,0.3537,0.3552,0.357,0.3574,0.3626,0.3718,0.3609,0.3611,0.3621,0.384,0.3787,0.3796,0.3745,0.3748,0.3751,0.3806,0,0.3087,0.3123,0.3153,0.3191,0.3212,0.3259,0.3315,0.3375,0.3431,0.3504,0.3558,0.3622,0.3596,0.3628,0.3681,0.3719,0.376,0.3701,0.3767,0.3768,0.371,0.3813,0.3507,0.3529,0.3819,0.3822,0.3823,0,0.3085,0.3113,0.3149,0.321,0.3224,0.3259,0.3352,0.3404,0.3523,0.3577,0.3663,0.3702,0.3793,0.3757,0.3863,0.383,0.3839,0.3854,0.3857,0.3792,0.3742,0.3503,0.3543,0.3846,0.3844,0.3842,0.3841,0,0.3048,0.3103,0.313,0.315,0.3229,0.3266,0.3315,0.3426,0.3492,0.3628,0.3705,0.3804,0.3872,0.3922,0.3954,0.3925,0.4058,0.4022,0.3973,0.3966,0.371,0.3677,0.4092,0.4092,0.4092,0.4092,0.4091,0,0.3037,0.3049,0.3114,0.3128,0.3174,0.3242,0.332,0.3393,0.3529,0.362,0.3732,0.3821,0.3924,0.4006,0.4007,0.4043,0.4106,0.4001,0.3999,0.3724,0.3694,0.3967,0.3952,0.4094,0.4093,0.4093,0.4092,0,0.298,0.3024,0.305,0.3129,0.3154,0.3184,0.3305,0.3367,0.351,0.3639,0.3692,0.387,0.3982,0.4054,0.4144,0.4112,0.4144,0.4127,0.3778,0.3735,0.3982,0.397,0.4085,0.4085,0.4084,0.4083,0.4083,0,0.2953,0.2964,0.3027,0.3045,0.3076,0.3142,0.3193,0.3336,0.3415,0.365,0.3706,0.3881,0.3977,0.4103,0.4075,0.4085,0.4145,0.3801,0.3698,0.4007,0.3992,0.3981,0.3971,0.3366,0.336,0.3355,0.3351,0,0.29,0.2919,0.2942,0.2982,0.3021,0.3067,0.3155,0.3217,0.3396,0.3513,0.3662,0.3766,0.3911,0.381,0.3857,0.3809,0.3782,0.3698,0.4136,0.3433,0.3338,0.3321,0.3332,0.3304,0.3309,0.3312,0.3315,0.3316,0.2848,0.2845,0.2879,0.2901,0.294,0.2965,0.2972,0.3075,0.3167,0.3291,0.3482,0.3526,0.3591,0.3514,0.3407,0.3321,0.3577,0.3407,0.3419,0.3437,0.3361,0.3273,0.3209,0.3213,0.3216,0.3219,0.3222,0,0.2775,0.2782,0.2801,0.2809,0.2792,0.2859,0.2919,0.289,0.2918,0.3059,0.3148,0.2954,0.2927,0.2977,0.2786,0.2799,0.2715,0.2677,0.2536,0.2587,0.2632,0.2509,0.2134,0.213,0.2126,0.2123,0,0,0.2738,0.2712,0.2713,0.265,0.2658,0.2597,0.2598,0.2564,0.2606,0.2576,0.2578,0.2805,0.2927,0.2492,0.2444,0.2256,0.2388,0.2162,0.3048,0.2936,0.2975,0.3086,0.2962,0,0,0,0,0]},{"header":{"parameterUnit":"m.s-1","parameterCategory":2,"la1":30.2991,"la2":30.254,"lo1":-89.0895,"lo2":-89.0444,"dy":0.0017,"dx":0.0017,"nx":28,"ny":28,"refTime":"2024-05-27T03:00:00:Z","depth":"2","parameterNumber":3,"parameterNumberName":"V-component_of_CURRENTS"},"data":[0,0,0,0,0,0,0,0,0,0,0,0,0,0,0,0,0,0,0,0,0,0,0,0,0,0,0,0,0,0,0,0,0,0,0,0,0,0,0,0,0,0,0,0,0,0,0,0,0,0,0,0,0,0,0,0,0,0,0.0226,0.0226,0,0.018,0.0179,0.0179,0.0145,0.0145,0.0145,0.0144,0.0074,0.0072,0.0071,0,0,0,0,0,0,0,0,0,0,0,0,0,0.0236,0.0237,0.0226,0.0226,0.0225,0.018,0.0179,0.0179,0.0145,0.0145,0.0145,0.0144,0.0075,0.0073,0.007,0,0,0,0,0,0,0,0,0,0,0,0,0,0.0214,0.0237,0.0226,0.0204,0.0202,0.018,0.0179,0.0178,0.0145,0.0145,0.0145,0.0144,0.0075,0.0073,0.007,0.0058,0,0,0.0062,0.0061,0,0,0,0,0,0,0,0,0.0215,0.0213,0.0208,0.0206,0.0203,0.0169,0.0157,0.0138,0.0145,0.0165,0.0144,0.0144,0.0105,0.01,0.009,0.0055,0.0052,0.0062,0.006,0.0059,0.0059,0,0,0,0,0,0,0,0.0217,0.0215,0.0206,0.0207,0.0204,0.018,0.0177,0.0153,0.0135,0.0163,0.0161,0.0158,0.0103,0.0092,0.0088,0.0051,0.0062,0.006,0.0058,0.0057,0.0014,0.0014,0,0,0,0,0,0,0.0229,0.0217,0.0208,0.0205,0.0211,0.0181,0.0177,0.0179,0.0136,0.0129,0.0159,0.0157,0.0097,0.0091,0.0085,0.0094,0.0059,0.0057,0.0055,0.0014,0.0014,0.0015,0,0,0,0,0,0,0.0229,0.0229,0.0209,0.0211,0.0207,0.0181,0.0183,0.0178,0.0173,0.0133,0.0126,0.0159,0.0096,0.0089,0.0074,0.009,0.0056,0.0053,0.0013,0.0014,0.0014,0.0095,0,0,0,0,0,0,0.023,0.0229,0.0234,0.0212,0.0207,0.0207,0.0184,0.0178,0.0172,0.0169,0.0131,0.0124,0.0096,0.0078,0.0071,0.0086,0.0051,0.0013,0.0013,0.0014,0.0092,0.0099,0.0104,0,0,0,0,0,0.023,0.0243,0.0235,0.0234,0.0216,0.0208,0.0203,0.0182,0.0172,0.0175,0.015,0.0125,0.0078,0.0076,0.0068,0.0082,0.0012,0.0013,0.0014,0.0089,0.0097,0.0104,0,0,0,0,0,0,0.0249,0.024,0.0231,0.024,0.0229,0.0203,0.0203,0.019,0.0172,0.0169,0.0131,0.0122,0.0114,0.0086,0.0085,0.0071,0.0041,0.004,0.0101,0.0108,0.0114,0.0137,0.0049,0,0,0,0,0,0.0257,0.0264,0.0249,0.0255,0.0252,0.0229,0.0223,0.021,0.0192,0.0183,0.0158,0.013,0.011,0.01,0.0074,0.0069,0.0037,0.0072,0.0078,0.0083,0.0096,0.007,0.0075,0.0018,0.0018,0.0018,0,0,0.0265,0.0262,0.0265,0.026,0.0248,0.0257,0.0225,0.0222,0.0234,0.0178,0.0184,0.0149,0.0112,0.0106,0.01,0.0087,0.0078,0.0084,0.009,0.0099,0.0071,0.0077,0.0082,0.0018,0.0018,0.0018,0,0,0.0292,0.0283,0.0301,0.0297,0.0288,0.0278,0.0282,0.0262,0.0259,0.0257,0.0221,0.0199,0.0169,0.0148,0.0134,0.0157,0.0109,0.0145,0.0199,0.0173,0.0178,0.0182,0.0133,0.0132,0.0151,0.0152,0.0152,0,0.0303,0.0324,0.0304,0.0321,0.0327,0.0294,0.0318,0.031,0.0289,0.0295,0.0271,0.0231,0.0192,0.0193,0.0198,0.0172,0.0142,0.0177,0.0183,0.0186,0.0189,0.0138,0.0135,0.0156,0.0155,0.0155,0.0154,0,0.0343,0.036,0.037,0.0385,0.0388,0.04,0.0391,0.0397,0.0385,0.0373,0.0369,0.0315,0.0294,0.0275,0.0243,0.0246,0.0211,0.0192,0.0169,0.02,0.0143,0.0139,0.0161,0.016,0.0159,0.0158,0,0,0.0373,0.0396,0.0401,0.0428,0.0425,0.044,0.0462,0.0478,0.0509,0.0471,0.0502,0.0446,0.041,0.039,0.0342,0.0317,0.0293,0.0269,0.0266,0.0229,0.0222,0.0212,0.0206,0.0279,0.0279,0.028,0.0169,0,0.0414,0.0468,0.0465,0.0521,0.0551,0.0538,0.0571,0.0578,0.0574,0.0593,0.0537,0.0539,0.0457,0.0453,0.0411,0.0335,0.029,0.0324,0.019,0.0186,0.0182,0.0205,0.021,0.0115,0.0165,0.0165,0.0164,0,0.0459,0.0493,0.0555,0.0611,0.0624,0.0652,0.0706,0.0733,0.0739,0.0736,0.0711,0.0665,0.062,0.0551,0.0422,0.0449,0.0339,0.0267,0.0261,0.0227,0.0171,0.0094,0.0105,0.0157,0.0158,0.0158,0.0159,0,0.0506,0.0562,0.062,0.0634,0.0684,0.072,0.0754,0.0777,0.0829,0.0832,0.0861,0.0779,0.0763,0.0627,0.0461,0.0445,0.0318,0.0274,0.0153,0.0149,0.0115,0.0109,0.0175,0.0175,0.0176,0.0176,0.0176,0,0.0557,0.0608,0.065,0.0685,0.0776,0.0785,0.0882,0.0901,0.095,0.103,0.0941,0.0975,0.0786,0.0686,0.0508,0.0327,0.0344,0.0169,0.0131,0.0141,0.0139,0.0149,0.0147,0.0172,0.0173,0.0174,0.0174,0,0.0603,0.0626,0.0703,0.077,0.0802,0.087,0.0981,0.1053,0.1081,0.1184,0.1196,0.1131,0.1008,0.0796,0.0581,0.0408,0.0225,0.0147,0.0161,0.0128,0.0052,0.0055,0.0003,0.0002,0.0001,0.0,-0.0,0,0.0631,0.0672,0.0769,0.083,0.0867,0.0969,0.1053,0.1117,0.1206,0.1288,0.1349,0.1264,0.123,0.0898,0.058,0.027,0.0225,0.0063,0.0036,0.0072,0.0039,0.0044,0.0049,0.0001,0.0001,0.0,-0.0,0,0.0686,0.0716,0.0782,0.0909,0.1006,0.1128,0.1252,0.1345,0.1441,0.1532,0.1622,0.1604,0.1293,0.0991,0.0564,0.034,0.0116,0.0045,0.0087,0.0061,0.0066,0.0036,0.0041,-0.0004,-0.0004,-0.0003,-0.0003,-0.0003,0.0727,0.0782,0.0873,0.0997,0.1115,0.1276,0.14,0.1536,0.1704,0.1846,0.1811,0.1782,0.1426,0.0886,0.0503,0.0088,0.0114,-0.0045,-0.0042,-0.0039,-0.0003,0.0003,-0.0075,-0.0075,-0.0075,-0.0075,-0.0075,0,0.0775,0.0846,0.0959,0.1113,0.1251,0.1315,0.1529,0.1653,0.1862,0.1967,0.2035,0.1693,0.1346,0.0926,0.0323,-0.0022,-0.0069,-0.0151,-0.0129,-0.0122,-0.0117,-0.0084,-0.0178,-0.018,-0.0181,-0.0182,0,0,0.0803,0.091,0.097,0.1197,0.1319,0.1531,0.1666,0.1843,0.1965,0.2072,0.2055,0.1975,0.1481,0.1026,0.0538,0.0188,0.0111,0.0103,0.0222,0.0313,0.0323,-0.0022,0.0041,0,0,0,0,0]}],[{"header":{"parameterUnit":"m.s-1","parameterCategory":2,"la1":30.2991,"la2":30.254,"lo1":-89.0895,"lo2":-89.0444,"dy":0.0017,"dx":0.0017,"nx":28,"ny":28,"refTime":"2024-05-27T03:00:00:Z","depth":"4","parameterNumber":2,"parameterNumberName":"U-component_of_CURRENTS"},"data":[0,0,0,0,0,0,0,0,0,0,0,0,0,0,0,0,0,0,0,0,0,0,0,0,0,0,0,0,0,0,0,0,0,0,0,0,0,0,0,0,0,0,0,0,0,0,0,0,0,0,0,0,0,0,0,0,0,0,0.1991,0.1992,0,0.205,0.2051,0.2051,0.211,0.2111,0.2112,0.2113,0.2194,0.2196,0.2197,0,0,0,0,0,0,0,0,0,0,0,0,0,0.1926,0.1926,0.1991,0.1992,0.1993,0.205,0.2051,0.2051,0.211,0.2111,0.2112,0.2114,0.2194,0.2195,0.2197,0,0,0,0,0,0,0,0,0,0,0,0,0,0.1964,0.1926,0.1991,0.2031,0.2035,0.205,0.2051,0.2052,0.211,0.2111,0.2113,0.2114,0.2193,0.2195,0.2197,0.218,0,0,0.2203,0.2204,0,0,0,0,0,0,0,0,0.1962,0.1966,0.2024,0.2028,0.2033,0.2076,0.2058,0.2096,0.2109,0.2079,0.2113,0.2115,0.2157,0.2162,0.2167,0.2184,0.2187,0.2203,0.2204,0.2205,0.2206,0,0,0,0,0,0,0,0.1959,0.1964,0.2012,0.2025,0.203,0.2044,0.2051,0.2065,0.2108,0.2082,0.2087,0.2096,0.216,0.2165,0.2169,0.2188,0.2203,0.2205,0.2206,0.2207,0.2335,0.2338,0,0,0,0,0,0,0.1955,0.1962,0.2011,0.2014,0.2002,0.2045,0.2052,0.2059,0.2108,0.2117,0.2095,0.2099,0.2161,0.2167,0.2172,0.2279,0.2205,0.2207,0.2208,0.2333,0.2336,0.2338,0,0,0,0,0,0,0.1953,0.1958,0.2008,0.1991,0.1999,0.2044,0.2051,0.206,0.2109,0.2118,0.2127,0.2142,0.2162,0.217,0.2227,0.2278,0.2208,0.2209,0.2331,0.2334,0.2337,0.2413,0,0,0,0,0,0,0.1951,0.1957,0.1982,0.1991,0.2,0.2043,0.2051,0.206,0.2111,0.2118,0.216,0.2166,0.2164,0.2225,0.2229,0.228,0.2211,0.2328,0.2332,0.2336,0.2408,0.2419,0.2428,0,0,0,0,0,0.1948,0.1968,0.1982,0.199,0.2025,0.2044,0.205,0.2085,0.2112,0.2136,0.2174,0.2167,0.2256,0.2228,0.2233,0.2285,0.2326,0.2331,0.2336,0.2403,0.2417,0.2428,0,0,0,0,0,0,0.1955,0.1976,0.1992,0.202,0.2044,0.2055,0.2088,0.2109,0.2156,0.218,0.2189,0.2198,0.2268,0.2266,0.2235,0.2336,0.2292,0.2299,0.2342,0.2355,0.2365,0.2359,0.2213,0,0,0,0,0,0.1965,0.1991,0.2007,0.2036,0.205,0.2078,0.21,0.2123,0.2155,0.218,0.221,0.2248,0.2284,0.2313,0.2335,0.2387,0.2389,0.2427,0.2437,0.2445,0.2446,0.251,0.2526,0.2355,0.2355,0.2355,0,0,0.1978,0.1994,0.2011,0.204,0.2065,0.2089,0.2096,0.214,0.2178,0.2179,0.2256,0.2284,0.2305,0.2366,0.2398,0.2378,0.2494,0.2452,0.2459,0.2455,0.2517,0.2533,0.2548,0.2359,0.2358,0.2358,0,0,0.1996,0.2029,0.2051,0.2073,0.2115,0.213,0.2152,0.2189,0.2228,0.2292,0.2309,0.2368,0.2424,0.2447,0.2465,0.2545,0.2543,0.2568,0.262,0.2682,0.2697,0.2709,0.2725,0.2738,0.2577,0.2577,0.2577,0,0.2016,0.2038,0.2062,0.2086,0.2115,0.2153,0.2183,0.222,0.2278,0.2319,0.2334,0.2442,0.246,0.253,0.2564,0.2568,0.2593,0.257,0.2695,0.2708,0.2719,0.2732,0.2746,0.2581,0.2581,0.258,0.258,0,0.2032,0.2069,0.2086,0.2129,0.2164,0.2199,0.2244,0.23,0.236,0.24,0.25,0.2532,0.2599,0.262,0.262,0.2716,0.2702,0.2697,0.2661,0.2741,0.2749,0.2762,0.2587,0.2586,0.2584,0.2583,0,0,0.202,0.2085,0.2095,0.2123,0.2193,0.2214,0.2295,0.2365,0.243,0.2506,0.2595,0.2664,0.2701,0.2723,0.2739,0.2791,0.2889,0.2791,0.2792,0.2799,0.3013,0.2819,0.2814,0.2924,0.2927,0.2929,0.2982,0,0.2029,0.2074,0.2113,0.2172,0.2198,0.2267,0.2333,0.2412,0.2494,0.2589,0.2656,0.2745,0.2735,0.279,0.2843,0.2888,0.293,0.2873,0.2939,0.294,0.2753,0.2824,0.2938,0.2991,0.2994,0.2996,0.2998,0,0.2018,0.2055,0.2112,0.2193,0.2214,0.2268,0.2387,0.2454,0.259,0.2662,0.2767,0.2825,0.2928,0.2907,0.3018,0.2994,0.301,0.3026,0.3029,0.2827,0.277,0.2898,0.3021,0.3019,0.3017,0.3015,0.3014,0,0.197,0.2048,0.2098,0.2126,0.2226,0.2288,0.2361,0.249,0.2566,0.2729,0.2812,0.2925,0.3013,0.3066,0.3111,0.3092,0.3213,0.3184,0.3011,0.2996,0.312,0.3106,0.3249,0.3249,0.3249,0.3249,0.3249,0,0.1937,0.1976,0.2088,0.2111,0.2188,0.2278,0.2387,0.2476,0.2628,0.2721,0.2857,0.2934,0.3069,0.3149,0.3157,0.3121,0.3255,0.3021,0.3005,0.3149,0.3138,0.3128,0.3113,0.3251,0.325,0.325,0.3249,0,0.1862,0.1936,0.1994,0.2117,0.2166,0.2227,0.2392,0.246,0.2625,0.2757,0.2821,0.2993,0.3088,0.3169,0.326,0.3163,0.3155,0.3103,0.3244,0.3235,0.2878,0.2868,0.2903,0.2897,0.2892,0.2887,0.2884,0,0.1821,0.1847,0.1983,0.2027,0.2092,0.2205,0.2276,0.2444,0.2518,0.2755,0.2796,0.2967,0.3054,0.3015,0.3114,0.3105,0.3065,0.3027,0.2944,0.2866,0.2848,0.2845,0.2842,0.2875,0.2874,0.2872,0.2871,0,0.1741,0.1809,0.1858,0.1952,0.2035,0.2108,0.223,0.2266,0.2459,0.2636,0.2703,0.2751,0.2847,0.289,0.2912,0.2899,0.3035,0.2971,0.298,0.2902,0.2833,0.2819,0.2822,0.2853,0.2855,0.2857,0.2858,0,0.1687,0.1701,0.1784,0.1846,0.1943,0.1975,0.2055,0.2132,0.2223,0.2474,0.2489,0.266,0.2821,0.2783,0.2805,0.2782,0.2725,0.2612,0.264,0.2661,0.2556,0.2431,0.2317,0,0,0,0,0,0.162,0.1619,0.167,0.1719,0.1807,0.1865,0.2001,0.2084,0.2272,0.2254,0.2363,0.2434,0.2475,0.2558,0.2483,0.2692,0.2736,0.2591,0.262,0.2751,0.2772,0.2671,0,0,0,0,0,0,0.1572,0.1614,0.1621,0.1601,0.1615,0.169,0.1769,0.1896,0.1891,0.2094,0.2126,0.2279,0.2353,0.2494,0.2436,0.2459,0.2422,0.2697,0.269,0.2739,0.2758,0.2775,0.2678,0,0,0,0,0]},{"header":{"parameterUnit":"m.s-1","parameterCategory":2,"la1":30.2991,"la2":30.254,"lo1":-89.0895,"lo2":-89.0444,"dy":0.0017,"dx":0.0017,"nx":28,"ny":28,"refTime":"2024-05-27T03:00:00:Z","depth":"4","parameterNumber":3,"parameterNumberName":"V-component_of_CURRENTS"},"data":[0,0,0,0,0,0,0,0,0,0,0,0,0,0,0,0,0,0,0,0,0,0,0,0,0,0,0,0,0,0,0,0,0,0,0,0,0,0,0,0,0,0,0,0,0,0,0,0,0,0,0,0,0,0,0,0,0,0,0.0092,0.0092,0,0.0066,0.0065,0.0065,0.0041,0.0041,0.0041,0.0041,-0.0007,-0.0008,-0.0009,0,0,0,0,0,0,0,0,0,0,0,0,0,0.0095,0.0095,0.0092,0.0092,0.0092,0.0066,0.0065,0.0065,0.0041,0.0041,0.0041,0.0041,-0.0006,-0.0008,-0.0009,0,0,0,0,0,0,0,0,0,0,0,0,0,0.0083,0.0095,0.0093,0.0078,0.0076,0.0066,0.0065,0.0065,0.0042,0.0041,0.0041,0.0041,-0.0006,-0.0008,-0.0009,-0.0014,0,0,-0.0014,-0.0015,0,0,0,0,0,0,0,0,0.0083,0.0082,0.008,0.0079,0.0077,0.0057,0.0049,0.0038,0.0042,0.0054,0.0041,0.0041,0.0014,0.001,0.0005,-0.0017,-0.0019,-0.0015,-0.0016,-0.0016,-0.0017,0,0,0,0,0,0,0,0.0084,0.0083,0.0081,0.008,0.0078,0.0063,0.0061,0.0046,0.0034,0.0053,0.0051,0.005,0.0012,0.0006,0.0003,-0.0019,-0.0014,-0.0016,-0.0017,-0.0018,-0.0037,-0.0037,0,0,0,0,0,0,0.0092,0.0084,0.0082,0.008,0.0081,0.0063,0.0061,0.0063,0.0035,0.0031,0.005,0.0049,0.0009,0.0005,0.0002,0.0015,-0.0016,-0.0018,-0.0019,-0.0038,-0.0037,-0.0037,0,0,0,0,0,0,0.0092,0.0092,0.0083,0.0082,0.008,0.0064,0.0066,0.0063,0.0061,0.0033,0.0028,0.0052,0.0009,0.0004,-0.0002,0.0012,-0.0019,-0.002,-0.0038,-0.0038,-0.0037,0.0028,0,0,0,0,0,0,0.0092,0.0092,0.0097,0.0083,0.008,0.0085,0.0066,0.0063,0.0061,0.0059,0.0033,0.0028,0.0008,0.0,-0.0004,0.0009,-0.0021,-0.0039,-0.0038,-0.0037,0.0025,0.0031,0.0035,0,0,0,0,0,0.0092,0.0102,0.0097,0.0097,0.0088,0.0085,0.0083,0.0069,0.0061,0.0065,0.0049,0.0029,0.0003,-0.0,-0.0006,0.0007,-0.0039,-0.0038,-0.0037,0.0023,0.0029,0.0035,0,0,0,0,0,0,0.0105,0.0101,0.0095,0.0103,0.0098,0.0082,0.0084,0.0075,0.0065,0.0063,0.0037,0.0031,0.0029,0.0009,0.0006,0.0003,-0.0022,-0.0022,0.0025,0.0031,0.0036,0.0051,-0.0023,0,0,0,0,0,0.0111,0.0118,0.0109,0.0116,0.0115,0.0101,0.0098,0.009,0.0079,0.0075,0.0058,0.004,0.0028,0.0023,0.0006,0.0008,-0.0021,0.0011,0.0017,0.0021,0.0029,0.0003,0.0006,-0.0033,-0.0033,-0.0033,0,0,0.0118,0.0117,0.012,0.012,0.0113,0.0123,0.0099,0.01,0.0113,0.0071,0.0081,0.0056,0.0032,0.0033,0.003,0.0019,0.0015,0.0023,0.0027,0.0032,0.0004,0.0008,0.0011,-0.0032,-0.0033,-0.0033,0,0,0.0139,0.0134,0.0149,0.0149,0.0146,0.014,0.0144,0.0134,0.0134,0.0139,0.0112,0.0098,0.0083,0.0067,0.0058,0.0081,0.0041,0.0075,0.0117,0.0091,0.0094,0.0097,0.0057,0.0055,0.0081,0.0081,0.0081,0,0.0148,0.0166,0.0152,0.0167,0.0176,0.0153,0.0175,0.0172,0.0162,0.0168,0.0152,0.0128,0.0101,0.0105,0.0111,0.0094,0.0068,0.0097,0.0099,0.01,0.0102,0.006,0.0058,0.0084,0.0084,0.0083,0.0083,0,0.0179,0.0195,0.0204,0.022,0.0226,0.0239,0.0237,0.0245,0.024,0.0233,0.0233,0.0197,0.0184,0.0171,0.0149,0.015,0.0123,0.0106,0.0085,0.011,0.0064,0.006,0.0089,0.0087,0.0086,0.0086,0,0,0.0198,0.0222,0.0228,0.0251,0.0257,0.0271,0.0294,0.0311,0.0335,0.0312,0.0337,0.0302,0.0274,0.0261,0.0226,0.0202,0.018,0.0165,0.0162,0.013,0.0113,0.0097,0.009,0.0166,0.0166,0.0166,0.0074,0,0.023,0.0275,0.0278,0.0328,0.0353,0.035,0.038,0.0391,0.0391,0.0406,0.0365,0.037,0.0312,0.0311,0.0275,0.0211,0.0174,0.0205,0.0091,0.0087,0.0073,0.0087,0.0165,0.0071,0.007,0.007,0.0069,0,0.0262,0.0292,0.0345,0.0398,0.041,0.0438,0.0487,0.0513,0.0519,0.0517,0.0501,0.0466,0.0431,0.038,0.0273,0.0297,0.021,0.0149,0.0144,0.0106,0.0064,0.0042,0.0062,0.0062,0.0063,0.0063,0.0064,0,0.0292,0.0344,0.0393,0.0408,0.0457,0.0492,0.0526,0.0548,0.059,0.0594,0.0615,0.0551,0.0541,0.0429,0.0295,0.0288,0.017,0.0141,0.0038,0.0034,0.0047,0.0046,0.0058,0.0058,0.0059,0.0059,0.0059,0,0.0325,0.0369,0.0417,0.0446,0.0526,0.0542,0.0624,0.0645,0.0685,0.0744,0.068,0.0698,0.0555,0.0469,0.0326,0.0174,0.0187,0.0048,0.0016,0.0074,0.0077,0.0043,0.0043,0.0055,0.0056,0.0057,0.0057,0,0.035,0.0376,0.0443,0.051,0.0543,0.0603,0.0705,0.0762,0.0788,0.0863,0.0874,0.0817,0.0706,0.054,0.0361,0.023,0.0076,0.0011,0.0084,0.0056,-0.0056,-0.0052,-0.0108,-0.0109,-0.011,-0.0111,-0.0112,0,0.0365,0.0399,0.0494,0.0548,0.0586,0.068,0.0752,0.0812,0.0876,0.0935,0.0973,0.0899,0.0833,0.057,0.0376,0.0102,0.0054,-0.0039,-0.0049,-0.0044,-0.007,-0.0064,-0.0059,-0.0114,-0.0114,-0.0114,-0.0114,0,0.0395,0.0427,0.0485,0.0597,0.0684,0.0788,0.0893,0.0948,0.1027,0.105,0.1064,0.0939,0.0808,0.0585,0.0372,0.0171,0.0019,-0.0051,-0.005,-0.0061,-0.0052,-0.0075,-0.0069,-0.0118,-0.0118,-0.0117,-0.0117,0,0.0419,0.0461,0.054,0.0642,0.0755,0.0869,0.0922,0.1005,0.1072,0.113,0.1128,0.099,0.0913,0.0619,0.0424,0.0227,0.0165,0.0084,0.0076,0.0077,0.0151,0.0191,0.0179,0,0,0,0,0,0.0438,0.049,0.0582,0.0698,0.0811,0.0885,0.1008,0.1052,0.1125,0.1147,0.1145,0.1024,0.0758,0.0641,0.0442,0.0374,0.011,0.013,0.0007,-0.0138,-0.0134,-0.0081,0,0,0,0,0,0,0.0452,0.0532,0.0579,0.0728,0.0816,0.0952,0.1035,0.1086,0.1095,0.1132,0.0995,0.0952,0.0687,0.0874,0.0433,0.0374,0.0263,0.0012,0.0007,-0.014,-0.0136,-0.0133,-0.0077,0,0,0,0,0]}]]